TimeCDT,TemperatureF,Dew PointF,Humidity,Sea Level PressureIn,VisibilityMPH,Wind Direction,Wind SpeedMPH,Gust SpeedMPH,PrecipitationIn,Events,Conditions,WindDirDegrees,DateUTC
12:54 AM,30.0,24.1,79,30.14,10.0,NNW,6.9,-,N/A,,Clear,330,2013-04-20 05:54:00
1:54 AM,28.9,24.1,82,30.14,10.0,NNW,6.9,-,N/A,,Clear,340,2013-04-20 06:54:00
2:54 AM,28.0,23.0,81,30.16,10.0,NNW,5.8,-,N/A,,Clear,340,2013-04-20 07:54:00
3:54 AM,27.0,23.0,85,30.17,10.0,NW,4.6,-,N/A,,Clear,320,2013-04-20 08:54:00
4:54 AM,27.0,21.9,81,30.19,10.0,NNW,5.8,-,N/A,,Clear,330,2013-04-20 09:54:00
5:54 AM,26.1,21.9,84,30.20,10.0,NW,4.6,-,N/A,,Clear,320,2013-04-20 10:54:00
6:54 AM,26.1,21.0,81,30.22,10.0,NNW,4.6,-,N/A,,Clear,340,2013-04-20 11:54:00
7:54 AM,30.0,24.1,79,30.25,10.0,North,4.6,-,N/A,,Clear,10,2013-04-20 12:54:00
8:54 AM,32.0,19.9,61,30.27,10.0,ENE,4.6,-,N/A,,Partly Cloudy,70,2013-04-20 13:54:00
9:54 AM,33.1,23.0,66,30.28,10.0,East,4.6,-,N/A,,Overcast,80,2013-04-20 14:54:00
10:54 AM,34.0,21.9,61,30.29,10.0,SSE,4.6,-,N/A,,Overcast,150,2013-04-20 15:54:00
11:54 AM,36.0,24.1,62,30.28,10.0,SE,5.8,-,N/A,,Overcast,140,2013-04-20 16:54:00
12:54 PM,39.0,23.0,53,30.25,10.0,ESE,8.1,-,N/A,,Overcast,120,2013-04-20 17:54:00
1:54 PM,41.0,23.0,49,30.24,10.0,SE,10.4,-,N/A,,Overcast,130,2013-04-20 18:54:00
2:54 PM,43.0,23.0,45,30.22,10.0,SE,11.5,-,N/A,,Overcast,140,2013-04-20 19:54:00
3:54 PM,46.0,25.0,44,30.19,10.0,SE,10.4,-,N/A,,Partly Cloudy,130,2013-04-20 20:54:00
4:54 PM,46.9,25.0,42,30.17,10.0,SE,13.8,-,N/A,,Partly Cloudy,140,2013-04-20 21:54:00
5:54 PM,46.9,25.0,42,30.17,10.0,SE,15.0,-,N/A,,Clear,130,2013-04-20 22:54:00
6:54 PM,46.0,25.0,44,30.16,10.0,ESE,15.0,-,N/A,,Scattered Clouds,120,2013-04-20 23:54:00
7:54 PM,45.0,25.0,46,30.15,10.0,SE,11.5,-,N/A,,Overcast,130,2013-04-21 00:54:00
8:54 PM,43.0,30.0,60,30.17,10.0,SE,9.2,-,N/A,,Clear,140,2013-04-21 01:54:00
9:54 PM,41.0,30.0,65,30.19,10.0,SE,5.8,-,N/A,,Mostly Cloudy,140,2013-04-21 02:54:00
10:54 PM,41.0,28.9,62,30.19,10.0,ESE,5.8,-,N/A,,Partly Cloudy,120,2013-04-21 03:54:00
11:54 PM,41.0,28.9,62,30.17,10.0,ESE,6.9,-,N/A,,Mostly Cloudy,110,2013-04-21 04:54:00